| time (UTC) | temp C | wind direction | speed KPH | gust KPH | rain 1hr cm | rain 24hr cm | rain mn cm | humidity % | barometer mb |
| 20260507155516 | 12 | 249 | 22.5 | 30.6 | 0.00 | 0.71 | 0.00 | 48 | 1017.6 |
| 20260507155014 | 12 | 230 | 20.9 | 29.0 | 0.00 | 0.71 | 0.00 | 49 | 1017.7 |
| 20260507154530 | 11 | 224 | 19.3 | 29.0 | 0.00 | 0.71 | 0.00 | 51 | 1017.8 |
| 20260507154015 | 11 | 213 | 20.9 | 29.0 | 0.00 | 0.71 | 0.00 | 50 | 1017.8 |
| 20260507153516 | 10 | 229 | 19.3 | 25.7 | 0.00 | 0.71 | 0.00 | 52 | 1017.7 |
| 20260507153032 | 10 | 200 | 20.9 | 29.0 | 0.00 | 0.71 | 0.00 | 50 | 1017.7 |
| 20260507152517 | 10 | 199 | 20.9 | 29.0 | 0.00 | 0.71 | 0.00 | 52 | 1017.6 |
| 20260507152018 | 10 | 212 | 19.3 | 27.4 | 0.00 | 0.71 | 0.00 | 52 | 1017.7 |
| 20260507151531 | 10 | 188 | 19.3 | 24.1 | 0.00 | 0.71 | 0.00 | 52 | 1017.7 |
| 20260507151016 | 10 | 209 | 17.7 | 29.0 | 0.00 | 0.71 | 0.00 | 54 | 1017.7 |
| 20260507150516 | 9 | 215 | 16.1 | 30.6 | 0.00 | 0.71 | 0.00 | 54 | 1017.7 |
| 20260507150036 | 9 | 239 | 20.9 | 30.6 | 0.00 | 0.71 | 0.00 | 53 | 1017.7 |
| 20260507145516 | 9 | 232 | 20.9 | 29.0 | 0.00 | 0.71 | 0.00 | 52 | 1017.6 |
| 20260507145020 | 8 | 237 | 20.9 | 32.2 | 0.00 | 0.71 | 0.00 | 52 | 1017.7 |
| 20260507144530 | 8 | 240 | 25.7 | 33.8 | 0.00 | 0.71 | 0.00 | 49 | 1017.6 |
| 20260507144016 | 8 | 220 | 22.5 | 33.8 | 0.00 | 0.71 | 0.00 | 52 | 1017.6 |
| 20260507143515 | 8 | 233 | 24.1 | 29.0 | 0.00 | 0.71 | 0.00 | 52 | 1017.7 |
| 20260507143032 | 8 | 228 | 22.5 | 32.2 | 0.00 | 0.71 | 0.00 | 53 | 1017.6 |
| 20260507142517 | 7 | 232 | 22.5 | 32.2 | 0.00 | 0.71 | 0.00 | 53 | 1017.5 |
| 20260507142019 | 7 | 228 | 22.5 | 30.6 | 0.00 | 0.71 | 0.00 | 53 | 1017.6 |
| 20260507141533 | 7 | 207 | 25.7 | 30.6 | 0.00 | 0.71 | 0.00 | 54 | 1017.4 |
| 20260507141018 | 6 | 237 | 24.1 | 30.6 | 0.00 | 0.71 | 0.00 | 54 | 1017.5 |
| 20260507140516 | 6 | 241 | 19.3 | 24.1 | 0.00 | 0.71 | 0.00 | 56 | 1017.5 |
| 20260507140041 | 6 | 235 | 14.5 | 27.4 | 0.00 | 0.71 | 0.00 | 56 | 1017.6 |
| 20260507135516 | 6 | 234 | 19.3 | 35.4 | 0.00 | 0.71 | 0.00 | 54 | 1017.6 |
| 20260507135018 | 6 | 235 | 24.1 | 38.6 | 0.00 | 0.71 | 0.00 | 54 | 1017.5 |
| 20260507134532 | 5 | 243 | 30.6 | 40.2 | 0.00 | 0.71 | 0.00 | 53 | 1017.4 |
| 20260507134016 | 5 | 237 | 30.6 | 45.1 | 0.00 | 0.71 | 0.00 | 53 | 1017.3 |
| 20260507133516 | 5 | 236 | 37.0 | 45.1 | 0.00 | 0.71 | 0.00 | 52 | 1017.2 |
| 20260507133034 | 5 | 246 | 32.2 | 40.2 | 0.00 | 0.71 | 0.00 | 53 | 1017.1 |
| 20260507132515 | 5 | 236 | 30.6 | 38.6 | 0.00 | 0.71 | 0.00 | 52 | 1017.2 |
| 20260507132015 | 5 | 242 | 29.0 | 35.4 | 0.00 | 0.71 | 0.00 | 54 | 1017.2 |
| 20260507131603 | 5 | 242 | 27.4 | 38.6 | 0.00 | 0.71 | 0.00 | 54 | 1017.3 |
| 20260507131016 | 4 | 247 | 29.0 | 38.6 | 0.00 | 0.71 | 0.00 | 55 | 1017.1 |
| 20260507130516 | 4 | 246 | 29.0 | 40.2 | 0.00 | 0.71 | 0.00 | 53 | 1017.1 |
| 20260507130029 | 4 | 244 | 30.6 | 40.2 | 0.00 | 0.71 | 0.00 | 53 | 1017.1 |
| 20260507125516 | 4 | 246 | 32.2 | 40.2 | 0.00 | 0.71 | 0.00 | 52 | 1017.1 |
| 20260507125015 | 4 | 246 | 30.6 | 38.6 | 0.00 | 0.71 | 0.00 | 52 | 1016.9 |
| 20260507124532 | 4 | 250 | 29.0 | 38.6 | 0.00 | 0.71 | 0.00 | 53 | 1016.8 |
| 20260507124017 | 3 | 235 | 29.0 | 35.4 | 0.00 | 0.71 | 0.00 | 55 | 1016.7 |
| 20260507123517 | 3 | 235 | 25.7 | 38.6 | 0.00 | 0.71 | 0.00 | 55 | 1016.6 |
| 20260507123041 | 3 | 240 | 25.7 | 38.6 | 0.00 | 0.71 | 0.00 | 55 | 1016.7 |
| 20260507122518 | 3 | 238 | 29.0 | 38.6 | 0.00 | 0.71 | 0.00 | 54 | 1016.6 |
| 20260507122016 | 3 | 237 | 29.0 | 40.2 | 0.00 | 0.71 | 0.00 | 56 | 1016.5 |
| 20260507121532 | 3 | 236 | 29.0 | 40.2 | 0.00 | 0.71 | 0.00 | 55 | 1016.5 |
| 20260507121016 | 3 | 243 | 32.2 | 40.2 | 0.00 | 0.71 | 0.00 | 55 | 1016.5 |
| 20260507120516 | 3 | 238 | 30.6 | 38.6 | 0.00 | 0.71 | 0.00 | 55 | 1016.5 |
| 20260507120035 | 3 | 234 | 29.0 | 38.6 | 0.00 | 0.71 | 0.00 | 55 | 1016.4 |
| 20260507115515 | 3 | 239 | 29.0 | 37.0 | 0.00 | 0.71 | 0.00 | 55 | 1016.3 |
| 20260507115015 | 3 | 234 | 27.4 | 40.2 | 0.00 | 0.71 | 0.00 | 55 | 1016.4 |
| 20260507114533 | 3 | 230 | 29.0 | 40.2 | 0.00 | 0.71 | 0.00 | 55 | 1016.4 |
| 20260507114020 | 3 | 236 | 27.4 | 35.4 | 0.00 | 0.71 | 0.00 | 54 | 1016.4 |
| 20260507113516 | 3 | 238 | 29.0 | 37.0 | 0.00 | 0.71 | 0.00 | 53 | 1016.4 |
| 20260507113059 | 3 | 237 | 29.0 | 37.0 | 0.00 | 0.71 | 0.00 | 54 | 1016.3 |
| 20260507112520 | 2 | 232 | 27.4 | 35.4 | 0.00 | 0.71 | 0.00 | 55 | 1016.3 |
| 20260507112016 | 2 | 236 | 27.4 | 35.4 | 0.00 | 0.71 | 0.00 | 56 | 1016.3 |
| 20260507111532 | 2 | 234 | 25.7 | 33.8 | 0.00 | 0.71 | 0.00 | 57 | 1016.4 |
| 20260507111016 | 2 | 233 | 22.5 | 32.2 | 0.00 | 0.71 | 0.00 | 57 | 1016.4 |
| 20260507110516 | 2 | 227 | 24.1 | 32.2 | 0.00 | 0.71 | 0.00 | 58 | 1016.4 |
| 20260507110036 | 2 | 235 | 24.1 | 29.0 | 0.00 | 0.71 | 0.00 | 58 | 1016.4 |
| 20260507105520 | 2 | 230 | 22.5 | 32.2 | 0.00 | 0.71 | 0.00 | 57 | 1016.4 |
| 20260507105016 | 2 | 240 | 25.7 | 35.4 | 0.00 | 0.71 | 0.00 | 56 | 1016.5 |
| 20260507104530 | 2 | 238 | 27.4 | 35.4 | 0.00 | 0.71 | 0.00 | 56 | 1016.5 |
| 20260507104014 | 3 | 238 | 27.4 | 37.0 | 0.00 | 0.71 | 0.00 | 55 | 1016.6 |
| 20260507103517 | 2 | 238 | 25.7 | 37.0 | 0.00 | 0.71 | 0.00 | 57 | 1016.6 |
| 20260507103033 | 2 | 234 | 27.4 | 37.0 | 0.00 | 0.71 | 0.00 | 57 | 1016.7 |
| 20260507102515 | 2 | 232 | 27.4 | 37.0 | 0.00 | 0.71 | 0.00 | 58 | 1016.6 |
| 20260507102017 | 2 | 233 | 27.4 | 38.6 | 0.00 | 0.71 | 0.00 | 58 | 1016.7 |
| 20260507101530 | 2 | 240 | 29.0 | 38.6 | 0.00 | 0.71 | 0.00 | 57 | 1016.7 |
| 20260507101015 | 2 | 236 | 27.4 | 38.6 | 0.00 | 0.71 | 0.00 | 59 | 1016.7 |
| 20260507100515 | 2 | 236 | 29.0 | 37.0 | 0.00 | 0.71 | 0.00 | 59 | 1016.8 |
| 20260507100042 | 2 | 234 | 29.0 | 37.0 | 0.00 | 0.71 | 0.00 | 60 | 1016.8 |
| 20260507095515 | 2 | 224 | 27.4 | 37.0 | 0.00 | 0.71 | 0.00 | 60 | 1016.7 |
| 20260507095017 | 2 | 243 | 27.4 | 35.4 | 0.00 | 0.71 | 0.00 | 61 | 1016.8 |
| 20260507094531 | 2 | 237 | 27.4 | 37.0 | 0.00 | 0.71 | 0.00 | 62 | 1016.8 |
| 20260507094017 | 2 | 234 | 27.4 | 37.0 | 0.00 | 0.71 | 0.00 | 61 | 1016.8 |
| 20260507093516 | 2 | 238 | 30.6 | 41.8 | 0.00 | 0.71 | 0.00 | 60 | 1016.9 |
| 20260507093034 | 2 | 241 | 30.6 | 41.8 | 0.00 | 0.71 | 0.00 | 60 | 1016.8 |
| 20260507092517 | 2 | 238 | 27.4 | 37.0 | 0.00 | 0.71 | 0.00 | 59 | 1016.8 |
| 20260507092017 | 2 | 241 | 27.4 | 40.2 | 0.00 | 0.71 | 0.00 | 61 | 1016.9 |
| 20260507091539 | 2 | 241 | 27.4 | 40.2 | 0.00 | 0.71 | 0.00 | 60 | 1016.8 |
| 20260507091016 | 2 | 239 | 30.6 | 37.0 | 0.00 | 0.71 | 0.00 | 60 | 1016.8 |
| 20260507090516 | 2 | 229 | 29.0 | 37.0 | 0.00 | 0.71 | 0.00 | 63 | 1016.9 |
| 20260507090032 | 2 | 229 | 29.0 | 38.6 | 0.00 | 0.71 | 0.00 | 62 | 1016.8 |
| 20260507085515 | 2 | 235 | 29.0 | 38.6 | 0.00 | 0.71 | 0.00 | 62 | 1016.9 |
| 20260507085016 | 2 | 234 | 29.0 | 38.6 | 0.00 | 0.71 | 0.00 | 62 | 1016.9 |
| 20260507084547 | 2 | 234 | 27.4 | 35.4 | 0.00 | 0.71 | 0.00 | 62 | 1016.9 |
| 20260507084016 | 2 | 238 | 27.4 | 35.4 | 0.00 | 0.71 | 0.00 | 63 | 1016.9 |
| 20260507083515 | 1 | 229 | 27.4 | 35.4 | 0.00 | 0.71 | 0.00 | 66 | 1017.0 |
| 20260507083031 | 1 | 235 | 25.7 | 35.4 | 0.00 | 0.71 | 0.00 | 67 | 1017.0 |
| 20260507082516 | 1 | 222 | 25.7 | 35.4 | 0.00 | 0.71 | 0.00 | 67 | 1017.0 |
| 20260507082016 | 1 | 240 | 25.7 | 35.4 | 0.00 | 0.71 | 0.00 | 68 | 1017.1 |
| 20260507081530 | 1 | 234 | 27.4 | 37.0 | 0.00 | 0.71 | 0.00 | 68 | 1017.2 |
| 20260507081017 | 1 | 248 | 27.4 | 38.6 | 0.00 | 0.71 | 0.00 | 69 | 1017.1 |
| 20260507080515 | 1 | 219 | 30.6 | 40.2 | 0.00 | 0.71 | 0.00 | 68 | 1017.1 |
| 20260507080035 | 2 | 240 | 32.2 | 40.2 | 0.00 | 0.71 | 0.00 | 68 | 1017.2 |
| 20260507075517 | 1 | 227 | 30.6 | 40.2 | 0.00 | 0.71 | 0.00 | 69 | 1017.3 |
| 20260507075022 | 1 | 252 | 30.6 | 40.2 | 0.00 | 0.71 | 0.00 | 70 | 1017.3 |
| 20260507074532 | 1 | 242 | 30.6 | 41.8 | 0.00 | 0.71 | 0.00 | 72 | 1017.3 |
| 20260507074015 | 1 | 240 | 29.0 | 41.8 | 0.00 | 0.71 | 0.00 | 76 | 1017.5 |
| 20260507073514 | 0 | 239 | 24.1 | 32.2 | 0.00 | 0.71 | 0.00 | 78 | 1017.5 |
| 20260507073030 | 0 | 229 | 24.1 | 33.8 | 0.00 | 0.71 | 0.00 | 77 | 1017.6 |
| 20260507072516 | 1 | 235 | 24.1 | 33.8 | 0.00 | 0.71 | 0.00 | 75 | 1017.6 |
| 20260507072015 | 1 | 238 | 29.0 | 33.8 | 0.00 | 0.71 | 0.00 | 75 | 1017.6 |
| 20260507071537 | 1 | 232 | 27.4 | 33.8 | 0.00 | 0.71 | 0.00 | 76 | 1017.7 |
| 20260507071017 | 1 | 224 | 29.0 | 33.8 | 0.00 | 0.71 | 0.00 | 77 | 1017.7 |
| 20260507070517 | 1 | 236 | 27.4 | 33.8 | 0.00 | 0.71 | 0.00 | 78 | 1017.5 |
| 20260507070033 | 1 | 228 | 27.4 | 33.8 | 0.00 | 0.71 | 0.00 | 78 | 1017.6 |
| 20260507065515 | 1 | 239 | 27.4 | 33.8 | 0.00 | 0.71 | 0.00 | 79 | 1017.7 |
| 20260507065016 | 0 | 236 | 25.7 | 33.8 | 0.00 | 0.71 | 0.00 | 79 | 1017.8 |
| 20260507064533 | 0 | 239 | 24.1 | 30.6 | 0.00 | 0.71 | 0.00 | 79 | 1017.7 |
| 20260507064016 | 0 | 238 | 24.1 | 30.6 | 0.00 | 0.71 | 0.00 | 80 | 1017.7 |
| 20260507063518 | 0 | 240 | 24.1 | 30.6 | 0.00 | 0.71 | 0.00 | 79 | 1017.8 |
| 20260507063030 | 1 | 237 | 24.1 | 30.6 | 0.00 | 0.71 | 0.00 | 79 | 1017.8 |
| 20260507062512 | 0 | 240 | 20.9 | 30.6 | 0.00 | 0.71 | 0.00 | 79 | 1017.8 |
| 20260507062015 | 0 | 242 | 22.5 | 30.6 | 0.00 | 0.71 | 0.00 | 79 | 1017.9 |
| 20260507061536 | 1 | 242 | 22.5 | 30.6 | 0.00 | 0.71 | 0.00 | 80 | 1017.9 |
| 20260507061015 | 0 | 242 | 22.5 | 29.0 | 0.00 | 0.71 | 0.00 | 81 | 1017.9 |
| 20260507060516 | 0 | 238 | 22.5 | 27.4 | 0.00 | 0.71 | 0.00 | 83 | 1017.9 |
| 20260507060037 | 0 | 237 | 20.9 | 25.7 | 0.00 | 0.71 | 0.00 | 84 | 1018.0 |
| 20260507055516 | 0 | 240 | 17.7 | 25.7 | 0.00 | 0.71 | 0.71 | 86 | 1018.1 |
| 20260507055015 | 0 | 229 | 16.1 | 25.7 | 0.00 | 0.71 | 0.71 | 86 | 1018.1 |
| 20260507054539 | 0 | 218 | 19.3 | 25.7 | 0.00 | 0.71 | 0.71 | 87 | 1018.1 |
| 20260507054020 | 0 | 232 | 17.7 | 24.1 | 0.00 | 0.71 | 0.71 | 87 | 1018.0 |
| 20260507053517 | 0 | 217 | 16.1 | 24.1 | 0.00 | 0.71 | 0.71 | 87 | 1018.0 |
| 20260507053032 | 0 | 214 | 17.7 | 24.1 | 0.00 | 0.71 | 0.71 | 88 | 1018.1 |
| 20260507052515 | 0 | 211 | 14.5 | 24.1 | 0.00 | 0.71 | 0.71 | 87 | 1018.1 |
| 20260507052016 | 0 | 208 | 14.5 | 24.1 | 0.00 | 0.71 | 0.71 | 87 | 1018.1 |
| 20260507051532 | 0 | 223 | 16.1 | 27.4 | 0.00 | 0.71 | 0.71 | 87 | 1018.2 |
| 20260507051021 | 0 | 209 | 19.3 | 27.4 | 0.00 | 0.71 | 0.71 | 87 | 1018.2 |
| 20260507050515 | 0 | 214 | 19.3 | 25.7 | 0.00 | 0.71 | 0.71 | 87 | 1018.2 |
| 20260507050054 | 0 | 220 | 17.7 | 24.1 | 0.00 | 0.71 | 0.71 | 87 | 1018.2 |
| 20260507045515 | 0 | 209 | 17.7 | 29.0 | 0.00 | 0.71 | 0.71 | 87 | 1018.1 |
| 20260507045016 | 0 | 217 | 19.3 | 29.0 | 0.00 | 0.71 | 0.71 | 87 | 1018.1 |
| 20260507044545 | 0 | 207 | 19.3 | 27.4 | 0.00 | 0.71 | 0.71 | 87 | 1018.1 |
| 20260507044017 | 0 | 212 | 19.3 | 25.7 | 0.00 | 0.71 | 0.71 | 87 | 1018.1 |
| 20260507043516 | 0 | 212 | 19.3 | 25.7 | 0.00 | 0.71 | 0.71 | 87 | 1018.1 |
| 20260507043033 | 0 | 207 | 17.7 | 25.7 | 0.00 | 0.71 | 0.71 | 86 | 1018.2 |
| 20260507042516 | 0 | 218 | 19.3 | 29.0 | 0.00 | 0.71 | 0.71 | 87 | 1018.3 |
| 20260507042016 | 0 | 208 | 20.9 | 29.0 | 0.00 | 0.71 | 0.71 | 87 | 1018.3 |
| 20260507041533 | 0 | 215 | 19.3 | 27.4 | 0.00 | 0.71 | 0.71 | 87 | 1018.3 |
| 20260507041016 | 0 | 215 | 20.9 | 29.0 | 0.00 | 0.71 | 0.71 | 86 | 1018.3 |
| 20260507040516 | 0 | 204 | 20.9 | 29.0 | 0.00 | 0.71 | 0.71 | 86 | 1018.1 |
| 20260507040032 | 0 | 209 | 20.9 | 27.4 | 0.00 | 0.71 | 0.71 | 86 | 1018.1 |
| 20260507035515 | 0 | 217 | 20.9 | 29.0 | 0.00 | 0.71 | 0.71 | 86 | 1018.1 |
| 20260507035016 | 0 | 204 | 20.9 | 29.0 | 0.00 | 0.71 | 0.71 | 86 | 1018.0 |
| 20260507034535 | 0 | 202 | 19.3 | 27.4 | 0.00 | 0.71 | 0.71 | 86 | 1017.9 |
| 20260507034018 | 0 | 188 | 20.9 | 25.7 | 0.00 | 0.71 | 0.71 | 86 | 1017.9 |
| 20260507033515 | 0 | 201 | 19.3 | 24.1 | 0.00 | 0.71 | 0.71 | 86 | 1017.9 |
| 20260507033039 | 0 | 207 | 17.7 | 25.7 | 0.00 | 0.71 | 0.71 | 86 | 1017.9 |
| 20260507032516 | 0 | 207 | 17.7 | 25.7 | 0.00 | 0.71 | 0.71 | 86 | 1018.0 |
| 20260507032015 | 0 | 198 | 17.7 | 25.7 | 0.00 | 0.71 | 0.71 | 86 | 1017.9 |
| 20260507031533 | 0 | 181 | 17.7 | 25.7 | 0.00 | 0.71 | 0.71 | 86 | 1017.9 |
| 20260507031016 | 0 | 180 | 19.3 | 25.7 | 0.00 | 0.71 | 0.71 | 86 | 1017.9 |
| 20260507030518 | 0 | 183 | 16.1 | 25.7 | 0.00 | 0.71 | 0.71 | 85 | 1017.9 |
| 20260507030036 | 0 | 172 | 17.7 | 25.7 | 0.00 | 0.71 | 0.71 | 85 | 1017.9 |
| 20260507025516 | 0 | 178 | 17.7 | 25.7 | 0.00 | 0.74 | 0.71 | 84 | 1017.8 |
| 20260507025018 | 0 | 170 | 17.7 | 27.4 | 0.00 | 0.74 | 0.71 | 84 | 1017.8 |
| 20260507024540 | 0 | 177 | 16.1 | 27.4 | 0.00 | 0.74 | 0.71 | 84 | 1017.8 |
| 20260507024015 | 0 | 170 | 16.1 | 24.1 | 0.00 | 0.74 | 0.71 | 84 | 1017.9 |
| 20260507023515 | 0 | 190 | 16.1 | 22.5 | 0.00 | 0.74 | 0.71 | 85 | 1017.9 |
| 20260507023032 | 0 | 172 | 14.5 | 22.5 | 0.00 | 0.74 | 0.71 | 85 | 1017.8 |
| 20260507022516 | 0 | 182 | 12.9 | 19.3 | 0.00 | 0.74 | 0.71 | 86 | 1017.8 |
| 20260507022015 | 0 | 175 | 14.5 | 19.3 | 0.00 | 0.74 | 0.71 | 86 | 1017.9 |
| 20260507021546 | 0 | 182 | 14.5 | 20.9 | 0.00 | 0.74 | 0.71 | 86 | 1017.8 |
| 20260507021015 | 0 | 180 | 14.5 | 20.9 | 0.00 | 0.74 | 0.71 | 86 | 1017.7 |
| 20260507020516 | 0 | 172 | 14.5 | 19.3 | 0.00 | 0.74 | 0.71 | 87 | 1017.7 |
| 20260507020032 | 0 | 180 | 12.9 | 17.7 | 0.00 | 0.74 | 0.71 | 86 | 1017.8 |
| 20260507015515 | 0 | 175 | 12.9 | 17.7 | 0.00 | 0.74 | 0.71 | 86 | 1017.9 |
| 20260507015015 | 0 | 170 | 14.5 | 17.7 | 0.00 | 0.74 | 0.71 | 85 | 1017.9 |
| 20260507014532 | 0 | 165 | 12.9 | 16.1 | 0.00 | 0.74 | 0.71 | 84 | 1017.9 |
| 20260507014020 | 0 | 161 | 11.3 | 14.5 | 0.00 | 0.74 | 0.71 | 84 | 1017.9 |
| 20260507013517 | 0 | 158 | 9.7 | 14.5 | 0.00 | 0.74 | 0.71 | 83 | 1018.0 |
| 20260507013035 | 1 | 169 | 9.7 | 16.1 | 0.00 | 0.74 | 0.71 | 82 | 1018.0 |
| 20260507012517 | 1 | 172 | 11.3 | 16.1 | 0.00 | 0.74 | 0.71 | 82 | 1018.0 |
| 20260507012016 | 1 | 186 | 11.3 | 14.5 | 0.00 | 0.74 | 0.71 | 81 | 1018.1 |
| 20260507011536 | 1 | 180 | 9.7 | 16.1 | 0.00 | 0.74 | 0.71 | 81 | 1018.1 |
| 20260507011015 | 1 | 177 | 11.3 | 16.1 | 0.00 | 0.74 | 0.71 | 80 | 1018.2 |
| 20260507010518 | 1 | 187 | 8.0 | 17.7 | 0.00 | 0.74 | 0.71 | 80 | 1018.1 |
| 20260507010040 | 1 | 194 | 12.9 | 17.7 | 0.00 | 0.74 | 0.71 | 79 | 1018.2 |
| 20260507005516 | 1 | 180 | 12.9 | 16.1 | 0.00 | 0.74 | 0.71 | 79 | 1018.2 |
| 20260507005024 | 2 | 184 | 9.7 | 16.1 | 0.00 | 0.74 | 0.71 | 79 | 1018.2 |
| 20260507004530 | 2 | 207 | 9.7 | 16.1 | 0.00 | 0.74 | 0.71 | 79 | 1018.2 |
| 20260507004017 | 2 | 213 | 8.0 | 12.9 | 0.00 | 0.74 | 0.71 | 79 | 1018.3 |
| 20260507003515 | 2 | 228 | 6.4 | 11.3 | 0.00 | 0.74 | 0.71 | 78 | 1018.3 |
| 20260507003030 | 2 | 219 | 6.4 | 12.9 | 0.00 | 0.74 | 0.71 | 79 | 1018.2 |
| 20260507002518 | 2 | 177 | 8.0 | 12.9 | 0.00 | 0.74 | 0.71 | 79 | 1018.3 |
| 20260507002016 | 2 | 236 | 8.0 | 16.1 | 0.00 | 0.74 | 0.71 | 79 | 1018.3 |
| 20260507001533 | 2 | 200 | 6.4 | 16.1 | 0.00 | 0.74 | 0.71 | 79 | 1018.3 |
| 20260507001015 | 1 | 194 | 6.4 | 14.5 | 0.00 | 0.74 | 0.71 | 80 | 1018.3 |
| 20260507000522 | 1 | 185 | 8.0 | 14.5 | 0.00 | 0.74 | 0.71 | 81 | 1018.2 |
| 20260507000034 | 1 | 153 | 9.7 | 16.1 | 0.00 | 0.74 | 0.71 | 81 | 1018.3 |
| 20260506235516 | 1 | 211 | 9.7 | 16.1 | 0.00 | 0.74 | 0.71 | 79 | 1018.3 |
| 20260506235020 | 1 | 178 | 9.7 | 16.1 | 0.00 | 0.74 | 0.71 | 79 | 1018.3 |
| 20260506234530 | 1 | 191 | 9.7 | 16.1 | 0.00 | 0.74 | 0.71 | 79 | 1018.3 |
| 20260506234017 | 1 | 167 | 8.0 | 14.5 | 0.00 | 0.74 | 0.71 | 79 | 1018.4 |
| 20260506233516 | 1 | 213 | 6.4 | 14.5 | 0.00 | 0.74 | 0.71 | 81 | 1018.5 |
| 20260506233033 | 1 | 203 | 4.8 | 19.3 | 0.00 | 0.74 | 0.71 | 80 | 1018.6 |
| 20260506232520 | 1 | 211 | 11.3 | 19.3 | 0.00 | 0.74 | 0.71 | 80 | 1018.6 |
| 20260506232015 | 1 | 198 | 6.4 | 14.5 | 0.00 | 0.74 | 0.71 | 80 | 1018.5 |
| 20260506231532 | 1 | 196 | 6.4 | 14.5 | 0.00 | 0.74 | 0.71 | 81 | 1018.6 |
| 20260506231016 | 1 | 192 | 6.4 | 17.7 | 0.00 | 0.74 | 0.71 | 80 | 1018.5 |
| 20260506230515 | 1 | 165 | 11.3 | 19.3 | 0.00 | 0.74 | 0.71 | 82 | 1018.6 |
| 20260506230034 | 0 | 221 | 11.3 | 19.3 | 0.00 | 0.74 | 0.71 | 83 | 1018.6 |
| 20260506225518 | 0 | 194 | 8.0 | 22.5 | 0.00 | 0.86 | 0.71 | 81 | 1018.7 |
| 20260506225016 | 1 | 222 | 12.9 | 22.5 | 0.00 | 0.86 | 0.71 | 81 | 1018.7 |
| 20260506224533 | 1 | 241 | 12.9 | 17.7 | 0.00 | 0.86 | 0.71 | 82 | 1018.9 |
| 20260506224019 | 0 | 194 | 8.0 | 17.7 | 0.00 | 0.86 | 0.71 | 82 | 1018.9 |
| 20260506223516 | 0 | 223 | 12.9 | 17.7 | 0.00 | 0.86 | 0.71 | 81 | 1019.0 |
| 20260506223030 | 1 | 245 | 12.9 | 17.7 | 0.00 | 0.86 | 0.71 | 83 | 1019.1 |
| 20260506222516 | 1 | 217 | 9.7 | 17.7 | 0.00 | 0.86 | 0.71 | 84 | 1019.1 |
| 20260506222016 | 0 | 195 | 8.0 | 16.1 | 0.00 | 0.86 | 0.71 | 83 | 1019.1 |
| 20260506221530 | 0 | 229 | 8.0 | 14.5 | 0.00 | 0.86 | 0.71 | 85 | 1019.1 |
| 20260506221016 | 0 | 229 | 6.4 | 11.3 | 0.00 | 0.86 | 0.71 | 83 | 1019.2 |
| 20260506220516 | 0 | 227 | 3.2 | 6.4 | 0.00 | 0.86 | 0.71 | 83 | 1019.2 |
| 20260506220035 | 0 | 230 | 3.2 | 8.0 | 0.00 | 0.86 | 0.71 | 83 | 1019.2 |
| 20260506215515 | 0 | 232 | 3.2 | 11.3 | 0.00 | 0.91 | 0.71 | 82 | 1019.3 |
| 20260506215014 | 0 | 241 | 4.8 | 11.3 | 0.00 | 0.91 | 0.71 | 81 | 1019.2 |
| 20260506214532 | 1 | 252 | 4.8 | 11.3 | 0.00 | 0.91 | 0.71 | 81 | 1019.3 |
| 20260506214016 | 1 | 279 | 3.2 | 12.9 | 0.00 | 0.91 | 0.71 | 82 | 1019.4 |
| 20260506213515 | 1 | 238 | 6.4 | 12.9 | 0.00 | 0.91 | 0.71 | 83 | 1019.3 |
| 20260506213032 | 0 | 257 | 3.2 | 11.3 | 0.00 | 0.91 | 0.71 | 84 | 1019.4 |
| 20260506212516 | 1 | 267 | 4.8 | 9.7 | 0.00 | 0.91 | 0.71 | 83 | 1019.5 |
| 20260506212020 | 1 | 257 | 4.8 | 9.7 | 0.00 | 0.91 | 0.71 | 85 | 1019.5 |
| 20260506211533 | 1 | 317 | 3.2 | 6.4 | 0.00 | 0.91 | 0.71 | 85 | 1019.5 |
| 20260506211016 | 0 | 289 | 3.2 | 6.4 | 0.00 | 0.91 | 0.71 | 84 | 1019.6 |
| 20260506210516 | 0 | 294 | 3.2 | 6.4 | 0.00 | 0.91 | 0.71 | 83 | 1019.5 |
| 20260506210036 | 0 | 269 | 3.2 | 6.4 | 0.00 | 0.91 | 0.71 | 82 | 1019.7 |
| 20260506205515 | 1 | 263 | 3.2 | 6.4 | 0.00 | 0.94 | 0.71 | 80 | 1019.6 |
| 20260506205018 | 2 | 262 | 3.2 | 6.4 | 0.00 | 0.94 | 0.71 | 79 | 1019.7 |
| 20260506204547 | 3 | 338 | 1.6 | 4.8 | 0.00 | 0.94 | 0.71 | 82 | 1019.7 |
| 20260506204017 | 3 | 28 | 0.0 | 6.4 | 0.00 | 0.94 | 0.71 | 84 | 1019.8 |
| 20260506203518 | 3 | 349 | 3.2 | 8.0 | 0.00 | 0.94 | 0.71 | 81 | 1019.8 |
| 20260506203031 | 3 | 26 | 3.2 | 8.0 | 0.00 | 0.94 | 0.71 | 82 | 1019.8 |
| 20260506202515 | 4 | 29 | 4.8 | 9.7 | 0.00 | 0.94 | 0.71 | 83 | 1019.8 |
| 20260506202017 | 3 | 51 | 4.8 | 9.7 | 0.00 | 0.94 | 0.71 | 83 | 1019.8 |
| 20260506201534 | 3 | 34 | 4.8 | 11.3 | 0.03 | 0.94 | 0.71 | 83 | 1019.8 |
| 20260506201014 | 3 | 27 | 4.8 | 16.1 | 0.03 | 0.94 | 0.71 | 84 | 1019.8 |
| 20260506200516 | 3 | 51 | 8.0 | 16.1 | 0.03 | 0.94 | 0.71 | 83 | 1019.9 |
| 20260506200034 | 3 | 49 | 6.4 | 16.1 | 0.05 | 0.94 | 0.71 | 84 | 1019.9 |
| 20260506195516 | 3 | 34 | 11.3 | 16.1 | 0.05 | 0.97 | 0.71 | 83 | 1020.0 |
| 20260506195019 | 3 | 20 | 11.3 | 16.1 | 0.05 | 0.97 | 0.71 | 84 | 1020.0 |
| 20260506194534 | 3 | 19 | 9.7 | 16.1 | 0.08 | 0.97 | 0.71 | 85 | 1019.9 |
| 20260506194015 | 3 | 29 | 11.3 | 16.1 | 0.08 | 0.97 | 0.71 | 86 | 1019.9 |
| 20260506193515 | 2 | 36 | 9.7 | 16.1 | 0.08 | 0.97 | 0.71 | 86 | 1019.9 |
| 20260506193030 | 2 | 34 | 9.7 | 16.1 | 0.10 | 0.97 | 0.71 | 87 | 1020.0 |
| 20260506192516 | 2 | 29 | 11.3 | 17.7 | 0.10 | 0.97 | 0.71 | 88 | 1020.1 |
| 20260506192015 | 2 | 19 | 11.3 | 17.7 | 0.13 | 0.97 | 0.71 | 89 | 1020.0 |
| 20260506191530 | 2 | 19 | 12.9 | 16.1 | 0.13 | 0.94 | 0.69 | 89 | 1020.0 |
| 20260506191015 | 2 | 24 | 12.9 | 17.7 | 0.13 | 0.94 | 0.69 | 90 | 1020.1 |
| 20260506190515 | 2 | 28 | 12.9 | 17.7 | 0.15 | 0.94 | 0.69 | 91 | 1020.1 |
| 20260506190030 | 1 | 24 | 14.5 | 17.7 | 0.15 | 0.91 | 0.66 | 92 | 1020.1 |
| 20260506185516 | 1 | 26 | 12.9 | 17.7 | 0.15 | 0.97 | 0.66 | 92 | 1020.0 |
| 20260506185016 | 1 | 20 | 12.9 | 17.7 | 0.18 | 0.97 | 0.66 | 92 | 1020.2 |
| 20260506184530 | 1 | 27 | 14.5 | 19.3 | 0.18 | 0.94 | 0.64 | 92 | 1020.3 |
| 20260506184016 | 1 | 33 | 16.1 | 20.9 | 0.18 | 0.94 | 0.64 | 92 | 1020.2 |
| 20260506183516 | 1 | 31 | 16.1 | 20.9 | 0.20 | 0.94 | 0.64 | 92 | 1020.4 |
| 20260506183033 | 1 | 33 | 17.7 | 24.1 | 0.20 | 0.91 | 0.61 | 93 | 1020.2 |
| 20260506182516 | 1 | 45 | 17.7 | 24.1 | 0.23 | 0.91 | 0.61 | 94 | 1020.2 |
| 20260506182015 | 0 | 42 | 19.3 | 25.7 | 0.20 | 0.89 | 0.58 | 94 | 1020.2 |
| 20260506181532 | 0 | 50 | 19.3 | 25.7 | 0.20 | 0.86 | 0.56 | 94 | 1020.2 |
| 20260506181019 | 0 | 57 | 20.9 | 25.7 | 0.20 | 0.84 | 0.53 | 94 | 1020.1 |
| 20260506180521 | 0 | 45 | 19.3 | 27.4 | 0.23 | 0.84 | 0.53 | 94 | 1020.2 |
| 20260506180030 | 0 | 55 | 20.9 | 27.4 | 0.23 | 0.81 | 0.51 | 95 | 1020.2 |
| 20260506175515 | 0 | 56 | 22.5 | 29.0 | 0.25 | 0.84 | 0.51 | 95 | 1020.1 |
| 20260506175015 | 0 | 49 | 22.5 | 30.6 | 0.25 | 0.81 | 0.48 | 95 | 1020.0 |
| 20260506174531 | 0 | 50 | 24.1 | 30.6 | 0.25 | 0.79 | 0.46 | 95 | 1020.1 |
| 20260506174020 | 0 | 43 | 22.5 | 29.0 | 0.25 | 0.79 | 0.46 | 95 | 1020.1 |
| 20260506173516 | 0 | 46 | 20.9 | 30.6 | 0.25 | 0.76 | 0.43 | 95 | 1020.1 |
| 20260506173033 | 0 | 44 | 24.1 | 30.6 | 0.23 | 0.74 | 0.41 | 95 | 1020.0 |
| 20260506172515 | 0 | 40 | 24.1 | 32.2 | 0.20 | 0.71 | 0.38 | 95 | 1019.8 |
| 20260506172016 | 0 | 41 | 25.7 | 32.2 | 0.18 | 0.69 | 0.36 | 96 | 1019.7 |
| 20260506171540 | 0 | 55 | 24.1 | 32.2 | 0.18 | 0.69 | 0.36 | 95 | 1019.7 |
| 20260506171016 | 0 | 58 | 27.4 | 33.8 | 0.18 | 0.66 | 0.33 | 95 | 1019.4 |
| 20260506170517 | 0 | 69 | 25.7 | 33.8 | 0.15 | 0.64 | 0.30 | 95 | 1019.3 |
| 20260506170035 | 0 | 52 | 22.5 | 30.6 | 0.13 | 0.61 | 0.28 | 96 | 1019.2 |
| 20260506165518 | 0 | 44 | 24.1 | 30.6 | 0.13 | 0.61 | 0.25 | 96 | 1019.1 |
| 20260506165016 | 0 | 38 | 17.7 | 29.0 | 0.10 | 0.58 | 0.23 | 96 | 1019.2 |
| 20260506164530 | 0 | 17 | 16.1 | 20.9 | 0.10 | 0.56 | 0.20 | 96 | 1019.3 |
| 20260506164017 | 0 | 15 | 16.1 | 20.9 | 0.08 | 0.53 | 0.18 | 96 | 1019.4 |
| 20260506163518 | 0 | 13 | 14.5 | 20.9 | 0.08 | 0.53 | 0.18 | 96 | 1019.4 |
| 20260506163032 | 0 | 5 | 16.1 | 20.9 | 0.10 | 0.53 | 0.18 | 96 | 1019.2 |
| 20260506162515 | 0 | 21 | 14.5 | 19.3 | 0.10 | 0.53 | 0.18 | 96 | 1019.2 |
| 20260506162015 | 0 | 13 | 14.5 | 20.9 | 0.10 | 0.53 | 0.18 | 96 | 1019.1 |
| 20260506161539 | 0 | 18 | 16.1 | 20.9 | 0.18 | 0.53 | 0.18 | 96 | 1019.1 |
| 20260506161016 | 0 | 15 | 16.1 | 19.3 | 0.15 | 0.51 | 0.15 | 96 | 1019.1 |
| 20260506160518 | 0 | 11 | 14.5 | 19.3 | 0.15 | 0.51 | 0.15 | 96 | 1019.2 |
| 20260506160043 | 0 | 5 | 16.1 | 20.9 | 0.15 | 0.51 | 0.15 | 96 | 1019.2 |